Home   Weather   Cumberland County   Past weeks

Flag for Canada Past Weather in Cumberland County, Nova Scotia, Canada — Yesterday and Last 2 Weeks

Now
52 °F

Cool.


Feels Like: 50 °F
Forecast: N/A
Wind: 6 mph from East

Location: Kentville

Current Time: Apr 25, 2017 at 5:37:19 pm

Latest Report: Apr 25, 2017 at 4:00 pm


Visibility: N/A

Pressure: 30.43 "Hg

Humidity: 32%

Dew Point: 22 °F

Location of Cumberland CountyLocation

Past Weather in Cumberland County — Graph

°F

Cumberland County Temperature Yesterday

Maximum temperature yesterday: 56 °F (at 3:00 pm)
Minimum temperature yesterday: 31 °F (at 5:00 am)
Average temperature yesterday: 44 °F

High & Low Weather Summary for the Past Weeks

 TemperatureHumidityPressure
High65 °F (Apr 11, 4:00 pm)100% (Apr 24, 3:00 am)30.68 "Hg (Apr 24, 3:00 am)
Low21 °F (Apr 19, 7:00 am)20% (Apr 15, 8:00 pm)29.58 "Hg (Apr 17, 2:00 am)
Average43 °F67%30.15 "Hg
* Reported Apr 10 4:00 pm — Apr 25 4:00 pm, Cumberland County, Weather by CustomWeather, © 2017

Note: Actual official high and low records may vary slightly from our data, if they occured in-between our weather recording intervals... More about our weather records

Advertising

Cumberland County Weather History for the Previous 24 Hours

Scroll right to see more
 ConditionsComfort  
Time TempWeatherWind HumidityBarometerVisibility
4:00 pm
Tue, Apr 25
52 °FCool.6 mph32%30.43 "HgN/A
3:00 pm50 °FCool.7 mph33%30.44 "HgN/A
2:00 pm51 °FCool.8 mph32%30.46 "HgN/A
1:00 pm49 °FCool.8 mph34%30.48 "HgN/A
12:00 pm48 °FCool.8 mph40%30.50 "HgN/A
11:00 am46 °FCool.7 mph45%30.50 "HgN/A
10:00 am43 °FQuite cool.8 mph45%30.50 "HgN/A
9:00 am39 °FChilly.7 mph44%30.49 "HgN/A
8:00 am37 °FChilly.6 mph58%30.46 "HgN/A
7:00 am34 °FChilly.3 mph69%30.44 "HgN/A
6:00 am33 °FChilly.3 mph83%30.41 "HgN/A
5:00 am29 °FChilly.No wind92%30.38 "HgN/A
4:00 am33 °FChilly.3 mph84%30.36 "HgN/A
3:00 am31 °FChilly.3 mph91%30.34 "HgN/A
2:00 am32 °FChilly.3 mph91%30.33 "HgN/A
1:00 am34 °FChilly.1 mph90%30.31 "HgN/A
12:00 am36 °FChilly.3 mph88%30.30 "HgN/A
11:00 pm
Mon, Apr 24
42 °FQuite cool.6 mph75%30.29 "HgN/A
10:00 pm43 °FQuite cool.6 mph71%30.28 "HgN/A
9:00 pm46 °FCool.5 mph67%30.24 "HgN/A
8:00 pm50 °FCool.5 mph52%30.22 "HgN/A
7:00 pm54 °FCool.7 mph52%30.20 "HgN/A
6:00 pm53 °FCool.8 mph52%30.18 "HgN/A
5:00 pm54 °FCool.9 mph53%30.17 "HgN/A
Weather by CustomWeather, © 2017

See weather overviewHow to use our weather pages